Погода в Рыбинске

Хотите узнать прогноз погоды в Рыбинске? Тогда Вам сюда: Погода в Рыбинске

Поиск расширенной информации на нашем сайте:

Полезная информация:

Новости сайта



02.01.2020
Опубликован Долгосрочный прогноз погоды по городам России и ближнего зарубежья на январь 2020 года.
Карты: Прогноз на январь и февраль 2020 года, Сравнение прогнозируемой аномалии приземной температуры воздуха на январь 2020 года по разным моделям.




Погода в Рыбинске - сегодня

Время (UTC), дата Ветер
(°,м/с) 
Видим.   Явления Облачность Т
(°С)
Тd
(°С)
f(%) Тe
(°С)
Pmin
(гПа)
dP
(гПа)
Po
(мм)
O2
(г/м3)
Тmin Tmax R s Состояние
почвы
09 03.03.21 260 (З) 10 км    8/8 300 м 
[Sc]
-0.3 -6.4 63 -3  1010.3  -1.6  748  302           
12 03.03.21 280 (З) 10 км    8/8 300 м 
[Sc]
+2.2 -3.9 64 +2  1008.1  -2  746  299           
15 03.03.21 280 (З) 10 км    8/8 600 м 
[Cu med, cong]
+1.7 -5 61 +1  1006.5  -1.7  745  299    +2.3       
18 03.03.21 260 (З) 10 км    6/6 300 м 
[Cu med, cong]
+1.1 -4.6 66 -1  1003.7  -2.8  743  299           
21 03.03.21 260 (З) 2{10}  10 км    10/10 2000 м 
[Ns]
+1.3 -3.7 69 +1  999.8  -3.8  740  297           
00 04.03.21 270 (З) 4{11}  4000 м  слаб. снег  10/0 средняя 
[As op]
+0.9 -1.6 83 -1  996.3  -3.5  737  296           
03 04.03.21 260 (З) 4-12{11}  4000 м  слаб. снег  10/10 2000 м 
[Ns]
+0.9 -0.2 92 -1  993.8  -2.4  736  295  +0.4    0.3  50  равномерный
мокрый или
старый снег
100% 
06 04.03.21 310 (СЗ) 4{12}  10 км  {снег}  8/8 300 м 
[Cu med, cong]
-2.6 -5.1 83 -5  995.9  1.8  737  300  -2.6         
09 04.03.21 320 (СЗ) 10 км  в посл. час ливневой снег  9/9 300 м кучево-дожд. 
[Cb calv]
-1.6 -4.9 78 -4  997.4  1.6  738  300           
12 04.03.21 320 (СЗ) 10 км  {ливн. осадки}  4/4 300 м 
[Cu med, cong]
-1.7 -7 67 -3  998.5  739  300           
15 04.03.21 320 (СЗ) 10 км    8/8 300 м 
[Sc]
-4.3 -8.7 71 -6  999.6  0.9  740  304    +0.7  0.3     
18 04.03.21 330 (СЗ) 10 км    4/4 600 м 
[Sc]
-10.1 -12.3 84 -10  1000.7  740  311           
21 04.03.21 340 (С) 10 км    3/3 600 м 
[Cu med, cong]
-10.6 -12.3 87 -10  1001.3  0.5  741  312           
00 05.03.21 340 (С) 10 км    ясно 
-12.4 -13.4 92 -12  1002.5  742  314           
03 05.03.21 тихо ()   4000 м  слаб. снег  10/10 2000 м 
[Ns]
-11.8 -12.7 93 -12  1002.7  0.4  742  314  -14.3    0.0  50  равномерный
сухой снег
100% 
06 05.03.21 300 (СЗ) 4000 м  слаб. снег  10/0 средняя 
[As op]
-6.6 -7.4 94 -8  1003.8  1.2  743  307           
09 05.03.21 320 (СЗ) 4000 м  слаб. снег  10/10 2000 м 
[Ns]
-5.4 -8.3 80 -7  1005.8  2.2  744  307           
12 05.03.21 320 (СЗ) 10 км  {снег}  ясно 
-6.2 -12.5 61 -8  1008.3  2.4  746  309           
15 05.03.21 290 (З) 10 км    3/0 верхняя 
[Ci fib]
-8.7 -12.4 75 -8  1009.8  1.3  747  312    -5.4     
18 05.03.21 320 (СЗ) 10 км    6/0 верхняя 
[Ci sp]
-14 -15.8 86 -14  1011.8  1.7  748  319           
21 05.03.21 320 (СЗ) 10 км    ясно 
-17.1 -18.4 90 -17  1013.5  1.5  749  324           
00 06.03.21 тихо ()   10 км    ясно 
-18.8 -20.1 89 -19  1014.4  0.8  750  326           
03 06.03.21 тихо ()   4000 м  слаб. снег  10/10 2000 м 
[Ns]
-18.6 -20.2 87 -19  1014.6  0.3  750  326  -21.3    0.0  54  равномерный
сухой снег
100% 
06 06.03.21 тихо ()   4000 м  слаб. снег  10/10 2000 м 
[Ns]
-12.5 -13.7 91 -13  1014.8  0.5  751  318           
09 06.03.21 330 (СЗ) 10 км  в посл. час снег  6/0 2000 м средняя 
[Ac trans]
-9.7 -12 83 -11  1015.3  0.7  751  315           
Время (UTC), дата Ветер
(°,м/с) 
Видим.   Явления Облачность Т
(°С)
Тd
(°С)
f(%) Тe
(°С)
Pmin
(гПа)
dP
(гПа)
Po
(мм)
O2
(г/м3)
Тmin Tmax R s Состояние
почвы

Для получения пояснительной информации подведите курсор к названию столбца.

ПОГОДА в Рыбинске - архив

Всё, что Вы хотите узнать о погоде в Рыбинске - удобно и подробно!

Выберите нужную дату (начиная с 1 января 2019* года) и нажмите кнопку "Найти".
Будут отображены архивные сводки погоды по пункту Рыбинск, начиная с указанной даты.


Отображать данные в формате CSV (для использования в таблицах Excel)


Внимание! Наш архив погоды предназначен исключительно для личного некоммерческого использования в познавательных целях. Если Вам необходимы официальные справки о состоянии погоды (для производственных, юридических, коммерческих и т.п. целей), обращайтесь в органы Росгидромета.

*Примечание: данная дата относится к архиву по метеостанциям СССР (Россия, СНГ, Балтия).
Архив по метеостанциям Зарубежной Европы и Азии (кроме Китая) хранится 10 дней, по другим регионам земного шара (Китай, Африка, Америка, Австралия, Океания) - 1 день.

Рыбинск - район местоположения метеостанции


Название, широта, долгота, высота метеостанции:
Рыбинск 58.1°ш. 38.7°д. 105 м над ур. моря [Российская Федерация]

Дополнительная информация

В oтличие oт бoльшинства пoгoдных сайтoв мы публикуем пoдрoбную метеoинфoрмацию в детальнoм прoфессиoнальнoм фoрмате.

Характеристики температуры и влажнoсти вoздуха измеряются на высoте 2 м в тени вдали oт зданий и деревьев.
Скoрoсть ветра измеряется на высoте 10 м (на урoвне рoста челoвека скoрoсть ветра ниже в 1.5-2 раза). Если метеoстанция нахoдится в гoрoде или в лесу, тo скoрoсть ветра занижена на 2-4 м/с пo сравнению с oткрытым местoм. Скoрoсть ветра над акватoриями крупных рек и oзёр, а также на вершинах хoлмoв на 2-5 м/с выше, чем в oбычных услoвиях.
Атмoсфернoе давление в разных тoчках местнoсти мoжет значительнo oтличаться oт давления на метеoстанции, в зависимoсти oт услoвий рельефа (при пoдъёме на 10 м давление пoнижается примернo на 1 мм рт.ст.).